Weather in Mayskiy

Russia / Republic of Buryatia     54°35′44″N   110°47′54″E
temp.,
°C
wind,
m/s
gust,
m/s
humid.,
%
clouds,
%
prec.,
mm/h
press.,
hPa
HPBL,
m
7 may, fri
fri723:00+2sw1161100 0.0 100729
02:00+1ese1167100 0.0 100620
05:000e1286100 0.4 1007129
08:00+2s1183100 1.6 1008317
11:00+9e254283 0.1 10071658
14:00+11ne4533100 0.1 10072337
17:00+11ne563257 0.0 10082023
20:00+6ene36491 0.0 1011238
8 may, sat
sat823:00+2ne11671 0.0 101312
02:000ese10772 0.0 101510
05:00−2e11855 0.0 101510
08:00+4ene11605 0.0 1014432
11:00+9ssw11416 0.0 10111120
14:00+13s333056 0.0 10072119
17:00+13wsw332898 0.0 10062385
20:00+8n224193 0.0 100825
9 may, sun
sun923:00+4s116061 0.0 101019
02:00+2s11678 0.0 101219
05:000sse11729 0.0 101210
08:00+5ssw125557 0.0 1012585
11:00+10sw2239100 0.0 10101333
14:00+12ssw222963 0.0 10081905
17:00+13wsw323429 0.0 10072081
20:00+9s23489 0.0 100841
10 may, mon
mon1023:00+4sse117570 0.3 101115
02:00+3ne227516 0.3 101223
05:00+2ne2275100 0.0 101220
08:00+8ne354891 0.0 1010544
11:00+13ese3435100 0.0 10082013
14:00+15ene352898 0.0 10062587
17:00+15ne352998 0.0 10062465
20:00+11ese114589 0.0 100713
11 may, tue
tue1123:00+7ne1259100 0.1 100918
02:00+5ese117099 0.1 101110
05:00+4s1174100 0.0 101110
08:00+8ssw225994 0.0 1010399
11:00+13ssw4343100 0.0 1008919
14:00+15ssw553591 0.1 10062050
17:00+15wsw5530100 0.0 10052014
20:00+10ssw4751100 0.0 1006272